OEY25 WIII-WIOO

Flight info

Callsign OEY25
Flight time 1h 12m
Altitude 31000
Route ABASA W14 LAKUN
Aircraft B733/M-SDE2E3FHIRW/S

Departure

Time 2026-05-04 09:47
Airport Soekarno-Hatta International Airport (WIII)

Arrival

Time 2026-05-04 10:59
Airport Supadio International Airport (WIOO)
Time Latitude Longitude Altitude Speed Heading
2026-05-04 09:23 -6.12670 106.66124 46 ft 0 kts 68°
2026-05-04 09:34 -6.12685 106.66042 46 ft 1 kts 151°
2026-05-04 09:34 -6.12680 106.66039 46 ft 1 kts 162°
2026-05-04 09:34 -6.12677 106.66039 46 ft 0 kts 159°
2026-05-04 09:39 -6.12678 106.66039 46 ft 0 kts 159°
2026-05-04 09:39 -6.12695 106.66045 46 ft 4 kts 157°
2026-05-04 09:39 -6.12738 106.66063 46 ft 8 kts 159°
2026-05-04 09:40 -6.12806 106.66090 46 ft 12 kts 158°
2026-05-04 09:40 -6.12893 106.66124 46 ft 15 kts 158°
2026-05-04 09:40 -6.12980 106.66158 46 ft 11 kts 158°
2026-05-04 09:40 -6.13067 106.66193 46 ft 15 kts 159°
2026-05-04 09:41 -6.13170 106.66234 46 ft 16 kts 159°
2026-05-04 09:42 -6.13046 106.66915 46 ft 24 kts 68°
2026-05-04 09:43 -6.12987 106.67063 46 ft 22 kts 67°
2026-05-04 09:43 -6.12930 106.67205 46 ft 21 kts 68°
2026-05-04 09:43 -6.12883 106.67324 46 ft 9 kts 69°
2026-05-04 09:43 -6.12876 106.67376 46 ft 0 kts 106°
2026-05-04 09:46 -6.13181 106.67056 46 ft 86 kts 248°
2026-05-04 09:46 -6.13491 106.66278 46 ft 149 kts 248°
2026-05-04 09:46 -6.13941 106.65154 174 ft 189 kts 246°
2026-05-04 09:47 -6.14462 106.63882 646 ft 201 kts 248°
2026-05-04 09:47 -6.14994 106.62539 980 ft 213 kts 247°
2026-05-04 09:49 -6.19681 106.51867 4836 ft 261 kts 216°
2026-05-04 09:49 -6.21373 106.51232 5449 ft 264 kts 180°
2026-05-04 09:49 -6.23147 106.51648 6104 ft 265 kts 157°
2026-05-04 09:51 -6.26103 106.59884 9853 ft 291 kts 50°
2026-05-04 09:51 -6.24806 106.61449 10533 ft 293 kts 51°
2026-05-04 09:51 -6.23499 106.63040 11227 ft 296 kts 51°
2026-05-04 09:51 -6.22212 106.64617 11894 ft 298 kts 51°
2026-05-04 09:52 -6.21199 106.65863 12398 ft 300 kts 51°
2026-05-04 09:52 -6.19877 106.67490 13066 ft 303 kts 51°
2026-05-04 09:52 -6.18537 106.69142 13731 ft 305 kts 51°
2026-05-04 09:52 -6.17255 106.70831 14390 ft 307 kts 54°
2026-05-04 09:53 -6.15998 106.72589 15049 ft 310 kts 55°
2026-05-04 09:53 -6.14730 106.74363 15512 ft 319 kts 54°
2026-05-04 09:53 -6.13416 106.76198 16043 ft 325 kts 55°
2026-05-04 09:53 -6.12074 106.78072 16645 ft 329 kts 55°
2026-05-04 09:54 -6.10744 106.79919 17267 ft 331 kts 53°
2026-05-04 09:54 -6.09233 106.81699 17878 ft 334 kts 49°
2026-05-04 09:54 -6.07656 106.83440 18464 ft 337 kts 49°
2026-05-04 09:54 -6.06092 106.85174 19020 ft 340 kts 49°
2026-05-04 09:55 -6.04500 106.86941 19566 ft 343 kts 49°
2026-05-04 09:55 -6.02888 106.88734 20108 ft 346 kts 49°
2026-05-04 09:55 -6.01274 106.90531 20626 ft 349 kts 49°
2026-05-04 09:55 -5.99626 106.92366 21143 ft 351 kts 49°
2026-05-04 09:56 -5.97992 106.94185 21678 ft 353 kts 49°
2026-05-04 09:56 -5.96337 106.96029 22153 ft 356 kts 49°
2026-05-04 09:56 -5.94645 106.97913 22236 ft 371 kts 49°
2026-05-04 09:56 -5.92826 106.99831 22290 ft 386 kts 41°
2026-05-04 09:57 -5.90515 107.01269 22559 ft 396 kts 24°
2026-05-04 09:57 -5.87896 107.02247 22932 ft 402 kts 21°
2026-05-04 09:57 -5.85237 107.03196 23432 ft 404 kts 21°
2026-05-04 09:57 -5.82589 107.04161 23920 ft 405 kts 21°
2026-05-04 09:58 -5.79923 107.05144 24372 ft 408 kts 21°
2026-05-04 09:58 -5.77273 107.06126 24811 ft 410 kts 21°
2026-05-04 09:58 -5.74573 107.07129 25246 ft 412 kts 21°
2026-05-04 10:00 -5.54893 107.12721 28065 ft 429 kts 14°
2026-05-04 10:00 -5.51978 107.13371 28529 ft 428 kts 14°
2026-05-04 10:02 -5.31901 107.17846 30899 ft 423 kts 14°
2026-05-04 10:04 -5.11847 107.22312 30887 ft 422 kts 14°
2026-05-04 10:04 -5.06126 107.23586 30887 ft 422 kts 14°
2026-05-04 10:05 -5.00397 107.24860 30885 ft 422 kts 14°
2026-05-04 10:05 -4.94637 107.26142 30886 ft 422 kts 14°
2026-05-04 10:06 -4.88881 107.27420 30852 ft 423 kts 14°
2026-05-04 10:06 -4.83175 107.28683 30869 ft 423 kts 14°
2026-05-04 10:08 -4.62998 107.33167 30859 ft 424 kts 14°
2026-05-04 10:08 -4.57262 107.34441 30859 ft 425 kts 14°
2026-05-04 10:09 -4.51480 107.35725 30859 ft 425 kts 14°
2026-05-04 10:09 -4.45705 107.37008 30859 ft 425 kts 14°
2026-05-04 10:10 -4.39921 107.38293 30859 ft 425 kts 14°
2026-05-04 10:10 -4.34171 107.39569 30859 ft 425 kts 14°
2026-05-04 10:11 -4.28364 107.40859 30859 ft 426 kts 14°
2026-05-04 10:11 -4.22567 107.42145 30859 ft 426 kts 14°
2026-05-04 10:12 -4.16785 107.43428 30859 ft 426 kts 14°
2026-05-04 10:12 -4.11003 107.44711 30860 ft 426 kts 14°
2026-05-04 10:13 -4.05229 107.45992 30859 ft 426 kts 14°
2026-05-04 10:13 -3.99406 107.47284 30859 ft 426 kts 14°
2026-05-04 10:14 -3.93612 107.48570 30859 ft 428 kts 14°
2026-05-04 10:16 -3.70466 107.53693 30860 ft 427 kts 14°
2026-05-04 10:16 -3.64670 107.54973 30860 ft 427 kts 14°
2026-05-04 10:17 -3.58867 107.56254 30863 ft 427 kts 14°
2026-05-04 10:19 -3.35644 107.61378 30863 ft 427 kts 14°
2026-05-04 10:19 -3.29830 107.62662 30864 ft 427 kts 14°
2026-05-04 10:20 -3.24034 107.63940 30862 ft 428 kts 14°
2026-05-04 10:20 -3.18079 107.65245 30816 ft 444 kts 14°
2026-05-04 10:21 -3.11980 107.66608 30822 ft 458 kts 14°
2026-05-04 10:21 -3.05661 107.68005 30860 ft 464 kts 14°
2026-05-04 10:22 -2.96368 107.70057 30866 ft 464 kts 14°
2026-05-04 10:23 -2.90042 107.71454 30863 ft 464 kts 14°
2026-05-04 10:25 -2.65844 107.79297 30865 ft 460 kts 34°
2026-05-04 10:25 -2.60427 107.82703 30860 ft 460 kts 33°
2026-05-04 10:26 -2.54975 107.86054 30853 ft 461 kts 33°
2026-05-04 10:26 -2.49505 107.89410 30851 ft 461 kts 33°
2026-05-04 10:27 -2.44013 107.92777 30846 ft 461 kts 33°
2026-05-04 10:27 -2.38538 107.96135 30843 ft 461 kts 33°
2026-05-04 10:28 -2.33065 107.99490 30839 ft 461 kts 33°
2026-05-04 10:28 -2.27601 108.02840 30836 ft 461 kts 33°
2026-05-04 10:29 -2.22120 108.06200 30837 ft 461 kts 33°
2026-05-04 10:29 -2.16654 108.09551 30837 ft 461 kts 33°
2026-05-04 10:30 -2.11147 108.12929 30837 ft 461 kts 33°
2026-05-04 10:30 -2.05753 108.16236 30837 ft 461 kts 33°
2026-05-04 10:31 -2.00296 108.19585 30837 ft 461 kts 33°
2026-05-04 10:32 -1.81845 108.30888 30836 ft 461 kts 33°
2026-05-04 10:33 -1.76350 108.34257 30838 ft 461 kts 33°
2026-05-04 10:33 -1.70868 108.37620 30836 ft 461 kts 33°
2026-05-04 10:34 -1.65403 108.40971 30832 ft 461 kts 33°
2026-05-04 10:34 -1.59931 108.44327 30832 ft 461 kts 33°
2026-05-04 10:35 -1.54457 108.47684 30832 ft 461 kts 33°
2026-05-04 10:35 -1.48946 108.51063 30832 ft 461 kts 33°
2026-05-04 10:36 -1.43486 108.54411 30800 ft 460 kts 33°
2026-05-04 10:36 -1.40763 108.56080 29840 ft 459 kts 33°
2026-05-04 10:36 -1.38085 108.57720 29731 ft 440 kts 33°
2026-05-04 10:37 -1.35514 108.59295 29301 ft 430 kts 33°
2026-05-04 10:37 -1.32967 108.60857 28565 ft 428 kts 33°
2026-05-04 10:37 -1.30426 108.62416 27723 ft 428 kts 33°
2026-05-04 10:37 -1.27893 108.63969 27016 ft 424 kts 33°
2026-05-04 10:39 -1.13752 108.72661 23769 ft 388 kts 33°
2026-05-04 10:39 -1.11454 108.74070 23228 ft 389 kts 33°
2026-05-04 10:39 -1.09139 108.75490 22690 ft 394 kts 33°
2026-05-04 10:40 -1.06787 108.76931 22143 ft 389 kts 33°
2026-05-04 10:40 -1.04510 108.78326 21599 ft 383 kts 33°
2026-05-04 10:40 -1.02241 108.79717 21059 ft 378 kts 33°
2026-05-04 10:40 -1.00033 108.81070 20543 ft 373 kts 33°
2026-05-04 10:41 -0.97829 108.82420 20032 ft 368 kts 33°
2026-05-04 10:41 -0.95639 108.83762 19520 ft 366 kts 33°
2026-05-04 10:41 -0.93466 108.85094 19003 ft 362 kts 33°
2026-05-04 10:41 -0.91282 108.86433 18501 ft 369 kts 33°
2026-05-04 10:42 -0.89199 108.87710 18018 ft 368 kts 33°
2026-05-04 10:42 -0.87131 108.88874 17539 ft 364 kts 24°
2026-05-04 10:42 -0.84787 108.89763 17347 ft 357 kts 21°
2026-05-04 10:42 -0.82406 108.90628 17230 ft 368 kts 21°
2026-05-04 10:43 -0.80005 108.91506 17110 ft 370 kts 21°
2026-05-04 10:44 -0.63611 108.97546 14391 ft 341 kts 21°
2026-05-04 10:45 -0.61398 108.98363 13941 ft 338 kts 21°
2026-05-04 10:45 -0.59208 108.99171 13491 ft 335 kts 20°
2026-05-04 10:45 -0.57012 108.99981 13038 ft 333 kts 20°
2026-05-04 10:45 -0.54836 109.00784 12586 ft 331 kts 20°
2026-05-04 10:46 -0.52682 109.01578 12136 ft 329 kts 20°
2026-05-04 10:46 -0.50546 109.02367 11658 ft 328 kts 20°
2026-05-04 10:46 -0.48414 109.03153 11193 ft 327 kts 20°
2026-05-04 10:46 -0.46225 109.03960 11059 ft 340 kts 20°
2026-05-04 10:47 -0.43974 109.04791 10966 ft 344 kts 20°
2026-05-04 10:47 -0.41717 109.05624 10970 ft 344 kts 20°
2026-05-04 10:47 -0.39516 109.06436 10688 ft 336 kts 19°
2026-05-04 10:47 -0.37365 109.07230 10669 ft 316 kts 19°
2026-05-04 10:49 -0.23207 109.12452 7413 ft 305 kts 19°
2026-05-04 10:49 -0.21171 109.13044 6915 ft 304 kts
2026-05-04 10:50 -0.19079 109.13376 6421 ft 305 kts
2026-05-04 10:51 -0.05419 109.15547 4502 ft 254 kts
2026-05-04 10:52 -0.03671 109.15827 4209 ft 252 kts
2026-05-04 10:52 -0.01960 109.16110 3937 ft 249 kts 11°
2026-05-04 10:52 -0.00443 109.16860 3839 ft 238 kts 41°
2026-05-04 10:54 0.04133 109.27135 2582 ft 222 kts 67°
2026-05-04 10:54 0.04706 109.28559 2379 ft 216 kts 68°
2026-05-04 10:56 -0.01233 109.34887 2025 ft 206 kts 161°
2026-05-04 10:56 -0.02580 109.35366 2019 ft 205 kts 161°
2026-05-04 10:56 -0.03911 109.35864 1957 ft 198 kts 160°
2026-05-04 10:57 -0.05142 109.36347 1950 ft 184 kts 159°
2026-05-04 10:57 -0.06356 109.36835 1752 ft 188 kts 158°
2026-05-04 10:57 -0.07558 109.37322 1444 ft 185 kts 158°
2026-05-04 10:57 -0.08751 109.37807 1177 ft 179 kts 158°
2026-05-04 10:58 -0.09868 109.38263 946 ft 168 kts 158°
2026-05-04 10:58 -0.10915 109.38691 733 ft 159 kts 158°
2026-05-04 10:58 -0.11917 109.39101 538 ft 144 kts 158°
2026-05-04 10:58 -0.12840 109.39477 338 ft 143 kts 158°
2026-05-04 10:59 -0.13754 109.39852 129 ft 142 kts 158°
2026-05-04 10:59 -0.14663 109.40230 16 ft 128 kts 159°
2026-05-04 10:59 -0.15167 109.40426 16 ft 38 kts 158°
2026-05-04 10:59 -0.15283 109.40477 16 ft 10 kts 142°
2026-05-04 11:00 -0.15309 109.40497 16 ft 0 kts 170°
2026-05-04 11:01 -0.14867 109.40319 16 ft 3 kts 33°
2026-05-04 11:02 -0.14857 109.40333 16 ft 1 kts 66°
2026-05-04 11:02 -0.14847 109.40358 16 ft 4 kts 68°
2026-05-04 11:05 -0.14544 109.40317 16 ft 0 kts 68°